COMPLETED DISPATCHED CALLS FOR SERVICE

Welcome to the Jacksonville Sheriff’s Office Completed Dispatched Calls for Service webpage. This page displays calls for service made to the Jacksonville Sheriff's Office that have recently been completed. The data on this page is refreshed automatically.

This information is not intended to be used as official crime data. This program does not provide information about all crimes, and excludes specific incidents such as sexual assaults and child abuse.

Disclaimer: The Jacksonville Sheriff's Office makes every effort to produce and publish current and accurate information. No warranties, expressed or implied, are provided for the data herein, its use, or its interpretation. The services provided are for informational purposes only and should not be relied on for any type of legal action.

Last refreshed 4/21 04:02:36

Incident # Dispatched Block Address Signal Call Description  
202400245244 4-21 01:25 3300 CLAIRE LN 61 FIGHT
202400245245 4-21 01:23 4300 SOUTHSIDE BLVD 64 NOISE COMPLAINT
202400245137 4-21 01:23 9100 BAYMEADOWS RD 64 NOISE COMPLAINT
202400245054 4-21 01:23 11400 CHASE MEADOWS DR S 90 FIREWORKS
202400245239 4-21 01:18 1500 MONUMENT RD 63 DISPUTE
202400245190 4-21 01:09 3000 ARMSTRONG ST 22 DOMESTIC
202400245226 4-21 01:08 CANAL ST N / SHERRINGTON ST 57 PERSON CALLING FOR HELP
202400245038 4-21 01:05 EDMONDS LN / OLD MIDDLEBURG RD S 64 NOISE COMPLAINT
202400245206 4-21 01:02 8TH ST E / MAIN ST N 33 DISCHARGING OF FIREARM
202400245203 4-21 00:53 400 STARRATT RD 76 ASSIST OTHER AGENCY
202400244955 4-21 00:48 9200 103RD ST 13 SUSPICIOUS PERSON
202400245164 4-21 00:40 6300 BEACH BLVD 63 DISPUTE
202400245182 4-21 00:38 4600 KERNAN BLVD S 64 NOISE COMPLAINT
202400245181 4-21 00:38 1600 MYRTLE AVE N 76 ASSIST OTHER AGENCY
202400245177 4-21 00:38 4000 HUNTINGTON FOREST BLVD 19 ANIMAL INVESTIGATION
202400245157 4-21 00:38 10800 PHILIPS HWY 13 SUSPICIOUS PERSON
202400245172 4-21 00:37 10900 ACORN PARK DR E 64 NOISE COMPLAINT
202400245126 4-21 00:35 700 VENUS-MARS CT 2 63 DISPUTE IMPAIRED/INTOXICATED
202400245134 4-21 00:33 800 PRUDENTIAL DR 63 DISPUTE
202400244934 4-21 00:32 1500 MCCONIHE ST 9 THEFT
202400245170 4-21 00:29 2100 CLIFTON ST 64 NOISE COMPLAINT
202400245158 4-21 00:28 10100 BELLE RIVE BLVD 2 22 DOMESTIC DISTURBANCE
202400245153 4-21 00:27 3500 VICTORIA PARK RD 64 NOISE COMPLAINT
202400245119 4-21 00:24 11000 OLD ST AUGUSTINE RD 64 NOISE COMPLAINT
202400245160 4-21 00:23 4600 SALISBURY RD 76 ASSIST OTHER AGENCY
202400245147 4-21 00:22 6600 COLLINS RD 9J THEFT JUST OCCURRED
202400245151 4-21 00:15 2700 UNIVERSITY BLVD W 88J ASSAULT JUST OCCURRED
202400245096 4-21 00:12 POST ST / PARK ST 1050 TRAFFIC STOP
202400245117 4-21 00:12 4300 SOUTHSIDE BLVD 64 NOISE COMPLAINT
202400245146 4-21 00:11 SUNBEAM RD / GENNA TRACE TRL 64 NOISE COMPLAINT
202400245102 4-21 00:08 10200 WHISPERING FOREST DR 4 AUTO CRASH
202400245139 4-21 00:07 2500 ORION ST 13 SUSPICIOUS PERSON
202400245118 4-21 00:05 700 VENUS-MARS CT 33 DISCHARGING OF FIREARM
202400245132 4-21 00:04 9500 BAYMEADOWS RD 76 ASSIST OTHER AGENCY
202400245114 4-21 00:02 4600 LENOIR AVE S 63 DISPUTE
202400245128 4-21 00:01 800 MANDALAY RD 64 NOISE COMPLAINT
202400245099 4-20 23:59 1300 BROOKWOOD FOREST BLVD 64 NOISE COMPLAINT
202400245125 4-20 23:59 500 BEE BEE DR 14C VANDALISM CONVEYANCE
202400245098 4-20 23:58 ALTA DR / FAYE RD 33 DISCHARGING OF FIREARM
202400245097 4-20 23:55 OLD ST AUGUSTINE RD / KENAN DR 12 RECKLESS DRIVER
202400245101 4-20 23:54 1200 LABELLE ST 64 NOISE COMPLAINT
202400245049 4-20 23:51 5000 PLAYPEN DR 22 DOMESTIC
202400245077 4-20 23:49 3300 AYRSHIRE ST 64 NOISE COMPLAINT
202400245110 4-20 23:48 22ND ST E / MAIN ST N 6388 DISPUTE WITH ASSAULT
202400244915 4-20 23:47 7700 PEPPER CIR E 64 NOISE COMPLAINT
202400245067 4-20 23:47 11000 OLD ST AUGUSTINE RD 3 HIT AND RUN CRASH
202400245092 4-20 23:44 3400 LEE ST N 2 22 DOMESTIC DISTURBANCE
202400245095 4-20 23:40 2700 SUNI PINES BLVD 2288 DOMESTIC DISPUTE WITH/ASSAULT
202400244920 4-20 23:39 GUILD WAY / BARLEY WAY 64 NOISE COMPLAINT
202400245072 4-20 23:39 FAIRFAX ST / MARTIN LUTHER KING JR PKWY 1050 TRAFFIC STOP
202400245090 4-20 23:38 10900 PLEASANT OAKS RD S 33 DISCHARGING OF FIREARM
202400245080 4-20 23:37 11500 BIRCH FOREST CIR E 64 NOISE COMPLAINT
202400245091 4-20 23:36 1100 OTIS RD 76 ASSIST OTHER AGENCY
202400245064 4-20 23:32 5500 WINDERMERE DR 64 NOISE COMPLAINT
202400245056 4-20 23:31 EDGEWOOD AVE W / PAUL REVERE DR 64 NOISE COMPLAINT
202400245078 4-20 23:31 8200 OSTEEN ST 2 22 DOMESTIC DISTURBANCE
202400245032 4-20 23:30 6100 COLLINS RD 64 NOISE COMPLAINT
202400245062 4-20 23:25 4800 SEASCAPE WAY 64 NOISE COMPLAINT
202400245071 4-20 23:25 10800 REGENCY DR 33 DISCHARGING OF FIREARM
202482006964 4-20 23:24 1700 SEA OATS DR 56 JUVENILE COMPLAINT
202400245042 4-20 23:24 10800 INDIES DR N 64 NOISE COMPLAINT
202400245073 4-20 23:23 5100 BENNING RD 63 DISPUTE
202400245061 4-20 23:17 300 LAURINA ST 63 DISPUTE
202400245060 4-20 23:16 11300 MCALLISTER BLVD 76 ASSIST OTHER AGENCY
202400244879 4-20 23:15 3400 PHILIPS HWY 63 DISPUTE
202400245013 4-20 23:12 700 SKYMARKS DR 2 63 DISPUTE IMPAIRED/INTOXICATED
202400244936 4-20 23:11 8800 TAURUS CIR N 22 DOMESTIC
202400245034 4-20 23:05 EAVERSON ST / BEAVER ST W 0 88J ARMED ASSAULT JUST OCCURRED
202400245030 4-20 23:04 5200 WESTCHASE CT 33 DISCHARGING OF FIREARM
202400245015 4-20 23:03 7300 PARK VILLAGE DR 63 DISPUTE
202400245006 4-20 23:00 PAUL REVERE DR / EDGEWOOD AVE W 64 NOISE COMPLAINT
202400244965 4-20 22:57 7400 POWERS AVE 64 NOISE COMPLAINT
202400244926 4-20 22:57 10100 GATE PKWY N 63 DISPUTE
202400244836 4-20 22:57 8500 GATE PKWY W 64 NOISE COMPLAINT
202400244954 4-20 22:56 13900 BEACH BLVD 16 ROAD OBSTRUCTION
202400245014 4-20 22:56 MAIN ST N / ADAMS ST E 63 DISPUTE
202400244984 4-20 22:55 CRYSTAL SPRINGS RD / BLAIR RD 3 HIT AND RUN CRASH
202400244892 4-20 22:54 LAWTON AVE / FLOYD ST 27 MENTALLY ILL PERSON
202400244982 4-20 22:49 3000 CORONET LN 63 DISPUTE
202400244948 4-20 22:47 1300 BROAD ST N 63 DISPUTE
202400244907 4-20 22:47 8100 POINT MEADOWS DR 13 SUSPICIOUS PERSON
202482006960 4-20 22:44 1700 OCEAN GROVE DR 63 DISPUTE
202400244995 4-20 22:40 2600 ST JOHNS BLUFF RD S 64 NOISE COMPLAINT
202400244973 4-20 22:40 8TH ST W / LAURA ST N 88 ASSAULT
202400244977 4-20 22:38 2600 UNIVERSITY BLVD N 63 DISPUTE
202400244989 4-20 22:37 1600 25TH ST W 0 22 DOMESTIC DISTURBANCE W/WEAPON
202400244942 4-20 22:36 ST AUGUSTINE RD / PHILIPS HWY 4 AUTO CRASH
202400244960 4-20 22:33 4100 FAIRFAX ST 64 NOISE COMPLAINT
202400244970 4-20 22:33 I295 N OFF RAMP / BLANDING BLVD 12 RECKLESS DRIVER
202400244957 4-20 22:32 4200 HOMER RD S 27 MENTALLY ILL PERSON
202400244958 4-20 22:31 APPROX LOC:5703 MERRILL RD 37 UNVERIFIED 911 CALL
202400244976 4-20 22:29 OLD KINGS RD S / BAYMEADOWS RD 4 53 TRAFFIC CRASH PERSON INJURED
202400244967 4-20 22:24 8300 PRINCETON SQUARE BLVD E 0 23IJ ARMED ROBBERY INDIVIDUAL JUST OCCURRED
202400244966 4-20 22:23 5200 AMAZON AVE 76 ASSIST OTHER AGENCY
202400244894 4-20 22:22 300 LAURINA ST 64 NOISE COMPLAINT
202400244962 4-20 22:22 3600 KERNAN BLVD S 76 ASSIST OTHER AGENCY
202400244959 4-20 22:21 SR A1A / MONTREAL ST 4 53 TRAFFIC CRASH PERSON INJURED
202400244881 4-20 22:15 5000 CLEVELAND RD 64 NOISE COMPLAINT
202400244941 4-20 22:14 3500 UNIVERSITY BLVD S 60 SUICIDE OR ATTEMPT
202400244933 4-20 22:12 5400 COLLINS LAKES DR 76 ASSIST OTHER AGENCY
202400244924 4-20 22:12 LANE AVE S / WATERGATE LN 1050 TRAFFIC STOP
202400244935 4-20 22:11 5900 RAMONA BLVD 88 ASSAULT
202400244891 4-20 22:11 1600 LANE AVE S 1050 TRAFFIC STOP
202400244928 4-20 22:09 3500 CAPPER RD 64 NOISE COMPLAINT
202400244929 4-20 22:09 11100 LAUREN OAK LN 0 61 FIGHT W/WEAPON
202400244932 4-20 22:09 4100 ROGERO RD 76 ASSIST OTHER AGENCY
202400244931 4-20 22:09 12500 PHILIPS HWY 4 AUTO CRASH
202400244922 4-20 22:08 UNIVERSITY BLVD N / E ARLXEXIT S UNIV RP 16 ROAD OBSTRUCTION
202400244883 4-20 22:07 5500 WINDERMERE DR 64 NOISE COMPLAINT
202400244875 4-20 22:06 3500 NEW BERLIN RD 88J ASSAULT JUST OCCURRED
202400244911 4-20 22:04 100 CHELSEA ST 64 NOISE COMPLAINT
202400244849 4-20 22:03 5200 LEXINGTON AVE 63 DISPUTE
202400244721 4-20 22:02 ASSISI LN / CYPRESS LANDING DR 13 SUSPICIOUS PERSON
202400244874 4-20 22:02 BLANDING BLVD / 103RD ST 12 RECKLESS DRIVER
202400244899 4-20 22:01 8800 OLD KINGS RD S 22 DOMESTIC
202400244877 4-20 21:59 11200 OLD ST AUGUSTINE RD 12 RECKLESS DRIVER
202400244869 4-20 21:58 5200 NORWOOD AVE 9 THEFT
202400244905 4-20 21:58 2400 DUNN AVE 63 DISPUTE
202400244895 4-20 21:55 6700 103RD ST 27 MENTALLY ILL PERSON
202400244889 4-20 21:51 9700 HOGAN RD 57 PERSON CALLING FOR HELP
202400244789 4-20 21:48 10300 MIDTOWN PKWY 3 HIT AND RUN CRASH
202400244857 4-20 21:46 11700 PALM LAKE DR 64 NOISE COMPLAINT
202400244850 4-20 21:43 DUNN AVE / DUVAL RD 56 JUVENILE COMPLAINT
202400244795 4-20 21:39 NOROAD / OLD MIDDLEBURG RD N 64 NOISE COMPLAINT
202400244856 4-20 21:39 1400 30TH ST E 0 63 ARMED DISPUTE
202400244832 4-20 21:39 3400 LEE ST N 2 22 DOMESTIC DISTURBANCE
202400244643 4-20 21:38 10300 SOUTHSIDE BLVD 63 DISPUTE
202400244783 4-20 21:37 14300 GARDEN GATE DR 9 THEFT
202400244845 4-20 21:35 2300 SOUTHSIDE BLVD 2288 DOMESTIC DISPUTE WITH/ASSAULT
202400244837 4-20 21:35 SOUTHSIDE BLVD / OLD BAYMEADOWS RD 4 AUTO CRASH
202400244866 4-20 21:34 6700 103RD ST 27 MENTALLY ILL PERSON
202400244864 4-20 21:33 10600 SAN JOSE BLVD 16 ROAD OBSTRUCTION
202400244865 4-20 21:33 4200 ATLANTIC BLVD 14B VANDALISM BUSINESS
202400244816 4-20 21:32 4500 BEDFORD RD 8 MISSING PERSON
202400244862 4-20 21:31 3600 BALLESTERO DR S 64 NOISE COMPLAINT
202400244863 4-20 21:31 5200 NORMANDY BLVD 76 ASSIST OTHER AGENCY
202400244851 4-20 21:31 4000 ATLANTIC BLVD 1066 CANCEL
202400244790 4-20 21:30 OLD ST AUGUSTINE RD / LOSCO RD 13 SUSPICIOUS PERSON
202400244793 4-20 21:26 6500 MAIN ST N 12 RECKLESS DRIVER
202400244853 4-20 21:26 6800 ATLANTIC BLVD 13 SUSPICIOUS PERSON
202400244847 4-20 21:24 7200 ARLINGTON EXPY 14B VANDALISM BUSINESS
202400244843 4-20 21:24 13300 YELLOW BLUFF RD 76 ASSIST OTHER AGENCY
202400244804 4-20 21:22 3600 CEDAR DR 10 VEHICLE THEFT
202400244840 4-20 21:20 9500 LOVAGE LN 13 SUSPICIOUS PERSON
202400244808 4-20 21:19 12900 BROXTON BAY DR 2 63 DISPUTE IMPAIRED/INTOXICATED
202400244829 4-20 21:19 10900 BEACH BLVD 2288 DOMESTIC DISPUTE WITH/ASSAULT
202400244824 4-20 21:18 3300 20TH ST W 50 FOUND/ABANDONED PROPERTY
202400244805 4-20 21:17 1000 WOLFE ST 76 ASSIST OTHER AGENCY
202400244828 4-20 21:15 MONCRIEF RD / RUTLEDGE AVE 4 53 TRAFFIC CRASH PERSON INJURED
202400244827 4-20 21:15 600 UNION ST W 60 SUICIDE OR ATTEMPT
202400244788 4-20 21:15 10200 MIDTOWN PKWY #137 4 AUTO CRASH
202400244825 4-20 21:14 MAIN ST N / IMESON PARK BLVD 16 ROAD OBSTRUCTION
202400244809 4-20 21:14 WILLESDON DR E / ASTON HALL DR S 1 4 CRASH W/IMPAIRED/DRUNK DRIVER
202400244806 4-20 21:14 MYRTLE AVE N / 7TH ST W 1 IMPAIRED/DRUNK DRIVER
202400244822 4-20 21:13 2200 CORPORATE SQUARE BLVD 13 SUSPICIOUS PERSON
202400244733 4-20 21:13 10000 GOVERN LN 56 JUVENILE COMPLAINT
202400244818 4-20 21:13 4400 DEERWOOD LAKE PKWY 64 NOISE COMPLAINT
202400244420 4-20 21:06 ORKNEY RD / GRIFLET RD 64 NOISE COMPLAINT
202400244785 4-20 21:06 6200 ARLINGTON EXPY 10 VEHICLE THEFT
202400244685 4-20 21:05 11700 SHELLFISH DR 63 DISPUTE
202400244636 4-20 21:05 13700 MACAPA RD 9 THEFT
202400244784 4-20 21:04 16300 TISONS BLUFF RD 3 HIT AND RUN CRASH
202400244763 4-20 21:03 IRENE ST / I95 OFF RAMP 3 HIT AND RUN CRASH
202400244566 4-20 21:02 7700 PEPPER CIR E 64 NOISE COMPLAINT
202400244699 4-20 21:01 1300 BROOKWOOD FOREST BLVD 64 NOISE COMPLAINT
202400244792 4-20 21:00 300 62ND ST W 1066 CANCEL
202400244786 4-20 21:00 GATE/DEER 1050 TRAFFIC STOP
202400244745 4-20 21:00 11500 CORAL RIDGE AVE 1066 CANCEL
202400244740 4-20 20:57 4200 WINDERGATE DR 64 NOISE COMPLAINT
202400244782 4-20 20:57 1700 10TH ST W 64 NOISE COMPLAINT
202400244756 4-20 20:57 5700 GREENLAND ROAD 21C BURGLARY CONVEYANCE
202482006953 4-20 20:57 MAYPORT RD / SARATOGA CIR N 4 53 TRAFFIC CRASH PERSON INJURED
202400244716 4-20 20:56 4200 BROAD CREEK LN 63 DISPUTE
202400244773 4-20 20:56 1200 HART ST 73 DRUG INVESTIGATION
202400244695 4-20 20:56 5500 HOLLOW BIRCH DR 13 SUSPICIOUS PERSON
202400244737 4-20 20:54 3600 BALLESTERO DR S 64 NOISE COMPLAINT
202400244703 4-20 20:53 6700 103RD ST 3 HIT AND RUN CRASH
202400244701 4-20 20:53 2100 BRIDIER ST 79 OBSCENE / THREAT CALL OR LETTER
202400244707 4-20 20:53 7300 LEM TURNER RD 54 ILLEGALLY PARKED CAR
202400244770 4-20 20:52 7100 OLD KINGS RD S 63 DISPUTE
202400244779 4-20 20:51 8000 OLD KINGS RD S 60 SUICIDE OR ATTEMPT
202400244658 4-20 20:50 1600 DERITO DR 64 NOISE COMPLAINT
202400244768 4-20 20:50 9000 CRAVEN RD 76 ASSIST OTHER AGENCY
202400244772 4-20 20:48 5800 BARNES RD S 76 ASSIST OTHER AGENCY
202400244765 4-20 20:46 2800 LAVIERE ST 63 DISPUTE
202400244638 4-20 20:46 7500 SCARLET IBIS LN 21R BURGLARY RESIDENCE
202400244758 4-20 20:44 4700 LONG BOW RD 13 SUSPICIOUS PERSON
202400244647 4-20 20:43 8000 NORMANDY BLVD 9 THEFT
202400244755 4-20 20:43 100 LAVILLA CENTER DR 76 ASSIST OTHER AGENCY
202400244738 4-20 20:43 2600 UNIVERSITY BLVD N 2 63 DISPUTE IMPAIRED/INTOXICATED
202400244751 4-20 20:42 1600 LANE AVE S 1050 TRAFFIC STOP
202400244731 4-20 20:37 12400 RUSSIAN OLIVE RD 13 SUSPICIOUS PERSON
202400244725 4-20 20:36 5700 GERANIUM RD 22 DOMESTIC
202400244734 4-20 20:36 400 CENTURY 21 DR 13 SUSPICIOUS PERSON
202400244714 4-20 20:31 1200 BROAD ST N 11 ABANDONED VEHICLE
202400244723 4-20 20:29 10500 WOOSTER DR 9 THEFT
202400244512 4-20 20:27 10200 RIVER MARSH DR 3 HIT AND RUN CRASH
202400244715 4-20 20:26 600 8TH ST W 37 UNVERIFIED 911 CALL
202400244705 4-20 20:25 12600 MAIN ST N 1 IMPAIRED/DRUNK DRIVER
202400244708 4-20 20:24 400 BIGGS ST 30J ABDUCTION - JUST OCCURRED
202400244656 4-20 20:23 900 LIBERTY ST N 88 ASSAULT
202400244675 4-20 20:19 3000 NOLAN ST 4 63 CRASH INVOLVING DISPUTE
202400244693 4-20 20:18 100 JULIA ST N 88 ASSAULT
202400244520 4-20 20:17 2800 PARK ST 14R VANDALISM RESIDENCE
202400244528 4-20 20:17 8100 BLANDING BLVD 2 63 DISPUTE IMPAIRED/INTOXICATED
202400244661 4-20 20:16 200 JACKSON AVE N 63 DISPUTE
202400244645 4-20 20:15 8700 HAMMONDWOOD RD S 56 JUVENILE COMPLAINT
202400244653 4-20 20:14 1200 1ST ST E 13 SUSPICIOUS PERSON
202400244684 4-20 20:13 8000 ECHO SPRINGS RD 0 88 ARMED ASSAULT
202400244681 4-20 20:12 8600 STANMOOR CT 76 ASSIST OTHER AGENCY
202400244629 4-20 20:12 2400 DUNN AVE 63 DISPUTE
202400244631 4-20 20:10 5500 PITTMAN DR N 21C BURGLARY CONVEYANCE
202400244588 4-20 20:06 4000 SAN JUAN AVE 54 ILLEGALLY PARKED CAR
202400244642 4-20 20:03 10400 PHILIPS HWY 9 THEFT
202400244612 4-20 20:01 4200 WINDERGATE DR 64 NOISE COMPLAINT
202400244633 4-20 20:00 6600 ARGYLE FOREST BLVD 37 UNVERIFIED 911 CALL
202400244663 4-20 20:00 600 UNION ST W 5388 ASSAULT INVOLVING INJURY
202400244660 4-20 19:59 4200 HEYWOOD ST 13 SUSPICIOUS PERSON
202400244510 4-20 19:59 1000 COVE LANDING DR 12 RECKLESS DRIVER
202400244639 4-20 19:57 14000 HYATT RD 13 SUSPICIOUS PERSON
202400244659 4-20 19:57 600 56TH ST E 2288 DOMESTIC DISPUTE WITH/ASSAULT
202400244616 4-20 19:55 9300 ARLINGTON EXPY 22 DOMESTIC
202400244605 4-20 19:55 600 UNION ST W 63 DISPUTE
202400244568 4-20 19:55 300 LAURINA ST 64 NOISE COMPLAINT
202400244654 4-20 19:54 WILSON BLVD / FOURAKER RD 76 ASSIST OTHER AGENCY
202400244650 4-20 19:53 3000 PARENTAL HOME RD 8 MISSING PERSON
202400244595 4-20 19:53 4300 CONFEDERATE POINT RD 64 NOISE COMPLAINT
202400244637 4-20 19:52 4900 KEY LIME DR 13 SUSPICIOUS PERSON
202400244418 4-20 19:51 8400 BLANDING BLVD 19 ANIMAL INVESTIGATION
202400244608 4-20 19:51 6800 WILSON BLVD 63 DISPUTE
202400244632 4-20 19:49 4100 HEATH RD 88J ASSAULT JUST OCCURRED
202400244511 4-20 19:43 2800 YELLOW PINE DR 9 THEFT
202400244442 4-20 19:43 3700 UNIVERSITY CLUB BLVD 10 VEHICLE THEFT
202400244630 4-20 19:42 7600 PRAVER DR E 0 13 ARMED SUSPICIOUS PERSON
202400244296 4-20 19:40 1000 ARCO DR 88 ASSAULT
202400244614 4-20 19:38 3800 DEXTER DR N 63 DISPUTE
202400244602 4-20 19:35 BAYMEADOWS RD / BAYMEADOWS WAY 4 AUTO CRASH
202400244620 4-20 19:35 6500 TOWNSEND RD 60 SUICIDE OR ATTEMPT
202400244599 4-20 19:35 CECIL COMMERCE CENTER PKWY / BEAVER ST W EXIT CCCPY SB RP 1 IMPAIRED/DRUNK DRIVER
202400244619 4-20 19:34 3100 LUCENA LN 7 DEAD PERSON
202400244613 4-20 19:33 REGENCY SQUARE BLVD N / N SS CEXIT RGCYSQ RP 60 SUICIDE OR ATTEMPT
202400244611 4-20 19:32 5200 UNIVERSITY BLVD W 76 ASSIST OTHER AGENCY
202400244375 4-20 19:32 900 LIBERTY ST N 88 ASSAULT
202400244548 4-20 19:31 10200 ATLANTIC BLVD 73 DRUG INVESTIGATION
202400244577 4-20 19:28 500 STOCKTON ST 13 SUSPICIOUS PERSON
202400244601 4-20 19:26 ATLANTIC BLVD / HICKORY CREEK BLVD W 63 DISPUTE
202400244346 4-20 19:25 2100 BRIDIER ST 88 ASSAULT
202400244591 4-20 19:24 11500 CORAL RIDGE AVE 63 DISPUTE
202400244586 4-20 19:24 1700 DETROIT ST 14RJ VANDALISM RESIDENCE JUST OCCURRED
202400244573 4-20 19:22 5100 NORMANDY BLVD 63 DISPUTE
202400244489 4-20 19:21 1400 20TH ST W 64 NOISE COMPLAINT
202400244571 4-20 19:20 11800 MAGNOLIA FALLS DR 21R BURGLARY RESIDENCE
202400244447 4-20 19:18 7400 LEM TURNER RD 68 CON GAME/FLIM FLAM
202400244565 4-20 19:18 4400 TRENTON DR N 37 UNVERIFIED 911 CALL
202400244578 4-20 19:16 1400 PALM AVE 56 JUVENILE COMPLAINT
202400244409 4-20 19:16 2600 ST JOHNS BLUFF RD S 13 SUSPICIOUS PERSON
202400244572 4-20 19:13 MLKEXIT BLVD RP / BOULEVARD 1050 TRAFFIC STOP
202400244314 4-20 19:13 5500 PINEBAY CIR S 14R VANDALISM RESIDENCE
202400244313 4-20 19:10 10100 SANDLER RD 63 DISPUTE
202400244546 4-20 19:04 1100 DUNN AVE 9 THEFT
202400244558 4-20 19:04 8700 PALM BREEZE RD 0 88J ARMED ASSAULT JUST OCCURRED
202400244396 4-20 19:03 5500 BLANDING BLVD 9 THEFT
202400244312 4-20 19:02 6000 ARGYLE FOREST BLVD 63 DISPUTE
202400244555 4-20 19:02 11800 TEMPLETON RD 63 DISPUTE
202400244500 4-20 19:02 7100 MERRILL RD 9 THEFT
202400244553 4-20 19:01 1500 MCCONIHE ST 22 DOMESTIC
202400244509 4-20 18:58 1600 SAN PABLO RD S 3 HIT AND RUN CRASH
202400244544 4-20 18:58 UNIVERSITY BLVD W / POWERS AVE 4 53 TRAFFIC CRASH PERSON INJURED
202400244531 4-20 18:58 400 MATILDA LN 0 63 ARMED DISPUTE
202400244536 4-20 18:57 800 ALDERMAN RD 8 27 MISSING MENTALLY ILL
202400244534 4-20 18:55 10200 BEAVER ST W 22 DOMESTIC
202400244479 4-20 18:55 2100 SPRING PARK RD 22 DOMESTIC
202400244535 4-20 18:53 6900 LENOIR AVE E 1066 CANCEL
202400244430 4-20 18:53 11700 BEACH BLVD 88J ASSAULT JUST OCCURRED
202400244513 4-20 18:51 1100 WILD AZALEA DR 10 VEHICLE THEFT
202400244530 4-20 18:51 11300 MAIN ST N 76 ASSIST OTHER AGENCY
202400244467 4-20 18:50 9800 ATLANTIC BLVD 9 THEFT
202400244525 4-20 18:50 5000 BEAVER ST W 22 DOMESTIC
202400244499 4-20 18:49 1400 CHERRY ST 13 SUSPICIOUS PERSON
202400244532 4-20 18:49 3500 BEACH BLVD 76 ASSIST OTHER AGENCY
202400244527 4-20 18:48 6700 TOWNSEND RD 2288 DOMESTIC DISPUTE WITH/ASSAULT
202400244529 4-20 18:48 700 SKYMARKS DR 4 AUTO CRASH
202400244334 4-20 18:48 700 FRANKLIN ST 9 THEFT
202400244475 4-20 18:47 SAN JUAN AVE / HERSCHEL ST 54 ILLEGALLY PARKED CAR
202400244466 4-20 18:47 600 BROWARD ROAD 19 ANIMAL INVESTIGATION
202400244407 4-20 18:47 3500 CAPPER RD 54 ILLEGALLY PARKED CAR
202400244464 4-20 18:46 LIBERTY ST N / 6TH ST E 16 ROAD OBSTRUCTION
202400244524 4-20 18:43 14900 MAX LEGGETT PKWY 9P THEFT IN PROGRESS
202400244439 4-20 18:41 1500 COVE LANDING DR 56 JUVENILE COMPLAINT
202400244468 4-20 18:41 8500 NUSSBAUM DR 33 DISCHARGING OF FIREARM
202400244473 4-20 18:41 900 MUSEUM CIR 54 ILLEGALLY PARKED CAR
202400244515 4-20 18:40 11300 LANDING ESTATES DR 64 NOISE COMPLAINT
202400244472 4-20 18:40 900 BROWARD RD 76 ASSIST OTHER AGENCY
202400244491 4-20 18:39 HARTXEXIT EMRSNX RP / EMERSON EXPY 10R VEHICLE THEFT RECOVERY
202400244433 4-20 18:37 4900 GATE PKWY 3 HIT AND RUN CRASH
202400244506 4-20 18:36 1400 6TH ST W 0 88J ARMED ASSAULT JUST OCCURRED
202400244398 4-20 18:36 2900 WOODTOP DR 20 PROWLER
202400244266 4-20 18:34 10300 BEACH BLVD 22 DOMESTIC
202482006948 4-20 18:33 700 ATLANTIC BLVD 14C VANDALISM CONVEYANCE
202400244422 4-20 18:31 5000 WESTCHASE CT 63 DISPUTE
202400244431 4-20 18:27 400 HARLEY DR 4 AUTO CRASH
202400244492 4-20 18:25 UNIVERSITY BLVD W / RICHARD ST 4 53 TRAFFIC CRASH PERSON INJURED
202400244449 4-20 18:25 5600 BAPTIST LN 10 VEHICLE THEFT
202400244322 4-20 18:23 6300 BEACH BLVD 63 DISPUTE
202400244486 4-20 18:22 E I10EXIT S CHAF RP / CHAFFEE RD S 0 13 ARMED SUSPICIOUS PERSON
202400244487 4-20 18:22 LENOX AVE / CASSAT AVE 4 53 TRAFFIC CRASH PERSON INJURED
202400244381 4-20 18:21 10900 HECKSCHER DRIVE 4 AUTO CRASH
202400244257 4-20 18:19 COLLINS RD / ORTEGA BLUFF PKWY 4 AUTO CRASH
202400244367 4-20 18:16 13900 MAIN ST N 63 DISPUTE
202400244461 4-20 18:13 900 ALLISON ST 22 DOMESTIC
202400244384 4-20 18:07 2000 NIBLICK DR 56 JUVENILE COMPLAINT
202400244448 4-20 18:06 9000 SOUTHSIDE BLVD 4 AUTO CRASH
202400244321 4-20 18:05 11500 HARTS RD 37 UNVERIFIED 911 CALL
202400244456 4-20 18:04 10700 OLD GAINESVILLE RD 4 AUTO CRASH
202400244444 4-20 18:01 4900 BIG ISLAND DR 0 63 ARMED DISPUTE
202400244450 4-20 18:00 3100 DIGNAN ST 64 NOISE COMPLAINT
202400244427 4-20 17:59 HAMILTON ST / CAMBRIDGE RD 19 ANIMAL INVESTIGATION
202400244443 4-20 17:57 4500 LENOX AVE 13 SUSPICIOUS PERSON
202400244307 4-20 17:52 12700 SERENADE CIR N 9 THEFT
202400244371 4-20 17:52 10500 MONACO DR 64 NOISE COMPLAINT
202400244197 4-20 17:49 6100 FT CAROLINE RD 9 THEFT
202482006944 4-20 17:49 3RD ST / BEACH AVE 54 ILLEGALLY PARKED CAR
202400244429 4-20 17:48 13000 GRAN BAY PKWY 63 DISPUTE
202400244378 4-20 17:47 1500 SILVER ST 2 63 DISPUTE IMPAIRED/INTOXICATED
202400244408 4-20 17:47 700 CHESTNUT OAK DR N 4 AUTO CRASH
202400244426 4-20 17:46 1500 25TH ST W 76 ASSIST OTHER AGENCY
202400244379 4-20 17:44 1500 SILVER ST 13 SUSPICIOUS PERSON
202400244397 4-20 17:44 14200 DUVAL RD 73 DRUG INVESTIGATION
202400244353 4-20 17:41 13200 CITY SQUARE DR 9 THEFT
202400244261 4-20 17:41 7000 COLLINS RD 9 THEFT
202482006942 4-20 17:40 800 SEMINOLE RD 3 HIT AND RUN CRASH
202400244377 4-20 17:40 10600 MONACO DR 2288 DOMESTIC DISPUTE WITH/ASSAULT
202400244411 4-20 17:38 9000 DANDY AVE 5388 ASSAULT INVOLVING INJURY
202400244412 4-20 17:38 7700 BELFORT PKWY 87 DAMAGED PROPERTY
202400244395 4-20 17:29 5400 PARK ST 1050 TRAFFIC STOP
202400244385 4-20 17:26 2900 REMINGTON ST 64 NOISE COMPLAINT
202400244388 4-20 17:25 2300 MARK AVE 23I53 ROBBERY INDIVIDUAL W/INJURY
202400244351 4-20 17:23 100 FORSYTH ST E 3 HIT AND RUN CRASH
202400244291 4-20 17:23 8400 ENGLISH OAK DR 22 DOMESTIC
202400244249 4-20 17:20 6500 SAN JUAN AVE 22 DOMESTIC
202400244305 4-20 17:17 10500 CORDGRASS LN 73 DRUG INVESTIGATION
202400244366 4-20 17:16 700 LIBERTY ST N 73 DRUG INVESTIGATION
202400244365 4-20 17:16 700 LIBERTY ST N 73 DRUG INVESTIGATION
202400244364 4-20 17:16 700 LIBERTY ST N 73 DRUG INVESTIGATION
202400244363 4-20 17:16 700 LIBERTY ST N 73 DRUG INVESTIGATION
202400244362 4-20 17:16 700 LIBERTY ST N 73 DRUG INVESTIGATION
202400244344 4-20 17:15 5900 ATLANTIC BLVD 3 HIT AND RUN CRASH
202400244357 4-20 17:14 10900 SAN JOSE BLVD 4 AUTO CRASH
202400244341 4-20 17:13 LEM TURNER RD / OAKHURST AVE 1050 TRAFFIC STOP
202482006939 4-20 17:10 500 ATLANTIC BLVD 4 AUTO CRASH
202400244325 4-20 17:09 800 WEST ST 13 SUSPICIOUS PERSON
202400244259 4-20 17:05 7600 103RD ST 9 THEFT
202400244327 4-20 17:03 8400 INDIA AVE 5388 ASSAULT INVOLVING INJURY
202400244330 4-20 17:03 700 MARKET ST N 88J ASSAULT JUST OCCURRED
202400244306 4-20 17:02 12200 KINELAVEN RD 26C CARDIAC AED
202400244320 4-20 16:59 4100 SAN PABLO RD S 22 DOMESTIC
202400244324 4-20 16:59 5800 ATLANTIC BLVD 1066 CANCEL
202400244309 4-20 16:57 3000 CORONET LN 10 VEHICLE THEFT
202400244323 4-20 16:56 6600 103RD ST 63 DISPUTE
202400244294 4-20 16:56 1900 4TH ST W 22 DOMESTIC
202400244099 4-20 16:55 3200 JUSTINA RD 9 THEFT
202482006937 4-20 16:55 600 MAYPORT RD 64 NOISE COMPLAINT
202400244272 4-20 16:53 4700 SEASCAPE WAY 63 DISPUTE
202400244297 4-20 16:51 1300 HIGH PLAINS DR S 13 SUSPICIOUS PERSON
202400244310 4-20 16:47 OLD MIDDLEBURG RD S / WHISPER GLEN DR 4 53 TRAFFIC CRASH PERSON INJURED
202482006936 4-20 16:47 DUTTON ISLAND RD W / MAYPORT RD 0 13 ARMED SUSPICIOUS PERSON
202400244262 4-20 16:45 6400 103RD ST 73 DRUG INVESTIGATION
202400244301 4-20 16:42 12200 KINELAVEN RD 76 ASSIST OTHER AGENCY
202400244288 4-20 16:37 LOGAN ST / TYLER ST 1050 TRAFFIC STOP
202400244284 4-20 16:32 1500 25TH ST W 76 ASSIST OTHER AGENCY
202400244252 4-20 16:31 4300 ARTHUR DURHAM DR E 4 AUTO CRASH
202400244208 4-20 16:31 2600 SPRING PARK RD 64 NOISE COMPLAINT
202400244274 4-20 16:29 CAPPER RD / NORTH CAMPUS BLVD 12 RECKLESS DRIVER
202400244273 4-20 16:27 5200 NORWOOD AVE 86 LOST PROPERTY
202400244264 4-20 16:26 1000 DYAL ST 63 DISPUTE
202400244270 4-20 16:26 10000 HIDDEN BRANCH DR E 28 DELIVER MESSAGE
202400244228 4-20 16:25 6800 ROOSEVELT BLVD 4 AUTO CRASH
202400244260 4-20 16:22 1600 CARBONDALE DR N 1066 CANCEL
202400244265 4-20 16:22 800 CLAY ST 76 ASSIST OTHER AGENCY
202400244263 4-20 16:22 5700 BOWDEN RD 27 MENTALLY ILL PERSON
202400244241 4-20 16:18 1500 MCCONIHE ST 37 UNVERIFIED 911 CALL
202400244165 4-20 16:16 4100 CRANSLEY PL 63 DISPUTE
202400244237 4-20 16:16 200 WASHINGTON ST N 63 DISPUTE
202400244256 4-20 16:15 9600 SOUTHBROOK DR 63 DISPUTE
202400244254 4-20 16:15 TOWN CENTER PKWY / GATE PKWY 4 AUTO CRASH
202400244178 4-20 16:14 KINGS AVE / MITCHELL AVE 4 AUTO CRASH
202400244251 4-20 16:14 5300 CAMILLE AVE 2288 DOMESTIC DISPUTE WITH/ASSAULT
202482006934 4-20 16:13 SHERRY DR / STURDIVANT AVE 16 ROAD OBSTRUCTION
202400244227 4-20 16:12 1100 PECAN PARK RD 14C VANDALISM CONVEYANCE
202400244154 4-20 16:12 6900 WELLAND RD 9 THEFT
202400244202 4-20 16:12 2100 HUGH EDWARDS DR 86 LOST PROPERTY
202400244246 4-20 16:11 9400 WORDSMITH WAY 76 ASSIST OTHER AGENCY
202400244056 4-20 16:10 8200 DAMES POINT CROSSING BLVD 63 DISPUTE
202400244236 4-20 16:08 1100 MYRA ST 63 DISPUTE
202400244240 4-20 16:08 9800 OLD BAYMEADOWS RD 76 ASSIST OTHER AGENCY
202400244235 4-20 16:05 2600 SIR GALAHAD DR 1066 CANCEL
202400244211 4-20 16:03 6000 ROOSEVELT BLVD 4 AUTO CRASH
202400244221 4-20 16:01 5600 COLLINS RD 22 DOMESTIC
202400244226 4-20 16:01 700 LIBERTY ST N 73 DRUG INVESTIGATION
202400244225 4-20 16:01 700 LIBERTY ST N 73 DRUG INVESTIGATION